SCP
0 0 0 0 0 0 0 0 0 0 0 0 0 0 0 0 0 0 0 0 0 0
0 0 0 0 0 0 0 0 0 0 0 0 0 0 0 0 0 0 0 0 0 0
0 0 0 0 0 0 0 0 0 0 0 0 0 0 0 0 0 0 0 0 0 0
0 0 0 0 0 0 0 0 0 0 0 0 0 0 0 0 0 0 0 0 0 0
0 0 0 0 0 0 0 0 0 0 0 0 0 0 0 0 0 0 0 0 0 0
0 0 0 0 0 0 0 0 0 0 0 0 0 0 0 0 0 0 0 0 0 0
0 0 0 0 0 0 0 0 0 0 0 0 0 0 0 0 0 0 0 0 0 0
0 0 0 0 0 0 0 0 0 0 0 0 0 0 0 0 0 0 0 0 0 0
0 0 0 0 0 0 0 0 0 0 0 0 0 0 0 0 0 0 0 0 0 0
0 0 0 0 0 0 0 0 0 0 0 0 0 0 0 0 0 0 0 0 0 0
0 0 0 0 0 0 0 0 0 0 0 0 0 0 0 0 0 0 0 0 0 0
0 0 0 0 0 0 0 0 0 0 0 0 0 0 0 0 0 0 0 0 0 0
0 0 0 0 0 0 0 0 0 0 0 0 0 0 0 0 0 0 0 0 0 0
0 0 0 0 0 0 0 0 0 0 0 0 0 0 0 0 0 0 0 0 0 0
Wind_Speed_500mb
57 50 43 35 30 25 22 17 12 6 3 4 9 14 19 21 22 21 21 21 21 24
57 50 44 36 28 23 21 16 12 10 5 4 8 14 17 18 18 18 21 22 25 27
55 50 42 34 28 26 22 20 18 13 8 3 8 13 16 17 17 19 22 25 27 30
56 50 43 36 32 29 27 24 20 15 9 1 7 14 14 15 17 20 25 30 33 34
57 52 48 43 37 33 30 27 23 17 10 2 8 13 14 16 18 23 29 34 36 37
61 56 52 46 41 38 34 30 25 18 11 6 11 15 15 17 20 25 32 36 38 41
61 58 53 49 46 42 37 33 28 22 14 11 13 16 17 21 24 30 34 37 41 43
64 59 56 55 51 45 41 37 32 26 20 17 18 21 25 28 32 35 37 40 43 45
68 65 63 60 54 49 46 42 36 32 26 23 22 25 29 34 38 39 41 44 47 47
70 68 65 62 57 54 53 46 41 37 30 27 27 28 33 38 41 42 44 47 49 48
72 70 66 64 60 62 57 51 46 38 35 33 31 32 36 39 42 44 46 50 50 49
76 70 68 67 68 65 59 56 47 42 41 39 35 38 41 43 45 46 50 52 49 48
70 66 65 70 67 63 61 53 50 50 49 47 43 46 44 45 47 50 51 52 49 49
64 64 66 62 63 61 59 56 55 55 55 55 54 50 48 47 50 52 54 54 50 50
Wind_Direction_500mb
179 175 172 170 163 162 161 156 146 142 133 45 34 23 11 2 359 2 7 6 1 355
181 182 181 171 167 174 172 171 171 186 172 84 35 14 7 5 6 5 4 357 353 347
186 188 186 180 179 183 183 187 190 181 166 83 19 15 12 6 5 357 354 349 344 337
191 193 189 188 187 190 194 193 188 184 185 139 11 5 4 355 350 347 346 342 337 330
196 196 195 194 194 199 203 199 197 195 194 233 347 344 340 337 339 339 339 337 332 326
198 199 199 200 203 207 207 204 202 201 213 263 316 324 321 319 320 325 329 328 323 321
203 204 205 207 211 211 209 209 211 216 229 263 293 301 299 300 304 312 315 317 319 316
207 207 209 213 214 215 214 213 215 226 240 264 281 288 289 289 296 299 303 309 314 313
208 210 214 217 217 218 219 217 222 231 245 265 278 283 284 287 290 293 300 308 311 311
213 216 219 221 221 224 225 223 228 235 249 264 274 279 283 284 286 292 300 306 308 307
219 221 223 225 226 228 226 229 233 242 254 261 266 273 277 280 285 293 299 302 304 303
223 224 227 230 231 229 230 233 238 247 254 257 260 267 271 276 285 291 297 298 298 299
228 231 233 237 233 233 234 238 243 250 255 256 258 262 266 274 282 288 293 293 297 297
231 239 237 236 234 234 235 241 248 255 257 257 257 260 266 272 280 288 289 291 293 292
Wind_Speed_850mb
57 50 43 35 30 25 22 17 12 6 3 4 9 14 19 21 22 21 21 21 21 24
57 50 44 36 28 23 21 16 12 10 5 4 8 14 17 18 18 18 21 22 25 27
55 50 42 34 28 26 22 20 18 13 8 3 8 13 16 17 17 19 22 25 27 30
56 50 43 36 32 29 27 24 20 15 9 1 7 14 14 15 17 20 25 30 33 34
57 52 48 43 37 33 30 27 23 17 10 2 8 13 14 16 18 23 29 34 36 37
61 56 52 46 41 38 34 30 25 18 11 6 11 15 15 17 20 25 32 36 38 41
61 58 53 49 46 42 37 33 28 22 14 11 13 16 17 21 24 30 34 37 41 43
64 59 56 55 51 45 41 37 32 26 20 17 18 21 25 28 32 35 37 40 43 45
68 65 63 60 54 49 46 42 36 32 26 23 22 25 29 34 38 39 41 44 47 47
70 68 65 62 57 54 53 46 41 37 30 27 27 28 33 38 41 42 44 47 49 48
72 70 66 64 60 62 57 51 46 38 35 33 31 32 36 39 42 44 46 50 50 49
76 70 68 67 68 65 59 56 47 42 41 39 35 38 41 43 45 46 50 52 49 48
70 66 65 70 67 63 61 53 50 50 49 47 43 46 44 45 47 50 51 52 49 49
64 64 66 62 63 61 59 56 55 55 55 55 54 50 48 47 50 52 54 54 50 50
Wind_Direction_850mb
179 175 172 170 163 162 161 156 146 142 133 45 34 23 11 2 359 2 7 6 1 355
181 182 181 171 167 174 172 171 171 186 172 84 35 14 7 5 6 5 4 357 353 347
186 188 186 180 179 183 183 187 190 181 166 83 19 15 12 6 5 357 354 349 344 337
191 193 189 188 187 190 194 193 188 184 185 139 11 5 4 355 350 347 346 342 337 330
196 196 195 194 194 199 203 199 197 195 194 233 347 344 340 337 339 339 339 337 332 326
198 199 199 200 203 207 207 204 202 201 213 263 316 324 321 319 320 325 329 328 323 321
203 204 205 207 211 211 209 209 211 216 229 263 293 301 299 300 304 312 315 317 319 316
207 207 209 213 214 215 214 213 215 226 240 264 281 288 289 289 296 299 303 309 314 313
208 210 214 217 217 218 219 217 222 231 245 265 278 283 284 287 290 293 300 308 311 311
213 216 219 221 221 224 225 223 228 235 249 264 274 279 283 284 286 292 300 306 308 307
219 221 223 225 226 228 226 229 233 242 254 261 266 273 277 280 285 293 299 302 304 303
223 224 227 230 231 229 230 233 238 247 254 257 260 267 271 276 285 291 297 298 298 299
228 231 233 237 233 233 234 238 243 250 255 256 258 262 266 274 282 288 293 293 297 297
231 239 237 236 234 234 235 241 248 255 257 257 257 260 266 272 280 288 289 291 293 292